| time (UTC) | temp F | wind direction | speed knots | gust knots | rain 1hr in | rain 24hr in | rain mn in | humidity % | barometer mb |
| 20260502210018 | 66 | 360 | 0.0 | 0.0 | 0.00 | 0.00 | 0.00 | 26 | 1012.0 |
| 20260502204515 | 64 | 360 | 0.0 | 0.0 | 0.00 | 0.00 | 0.00 | 27 | 1012.2 |
| 20260502203015 | 65 | 360 | 0.0 | 0.0 | 0.00 | 0.00 | 0.00 | 30 | 1012.4 |
| 20260502201511 | 64 | 360 | 0.0 | 0.0 | 0.00 | 0.00 | 0.00 | 30 | 1012.6 |
| 20260502200010 | 64 | 360 | 0.0 | 0.0 | 0.00 | 0.00 | 0.00 | 28 | 1012.7 |
| 20260502194507 | 64 | 360 | 0.0 | 0.0 | 0.00 | 0.00 | 0.00 | 31 | 1012.8 |
| 20260502193005 | 63 | 360 | 0.0 | 0.9 | 0.00 | 0.00 | 0.00 | 28 | 1013.1 |
| 20260502191502 | 62 | 360 | 0.0 | 0.0 | 0.00 | 0.00 | 0.00 | 29 | 1013.3 |
| 20260502190100 | 61 | 360 | 0.0 | 0.0 | 0.00 | 0.00 | 0.00 | 27 | 1013.5 |
| 20260502184600 | 62 | 360 | 0.0 | 0.0 | 0.00 | 0.00 | 0.00 | 32 | 1013.7 |
| 20260502183106 | 62 | 360 | 0.0 | 0.0 | 0.00 | 0.00 | 0.00 | 32 | 1014.0 |
| 20260502181554 | 61 | 360 | 0.0 | 0.0 | 0.00 | 0.00 | 0.00 | 27 | 1014.2 |
| 20260502163043 | 58 | 360 | 0.0 | 0.0 | 0.00 | 0.00 | 0.00 | 35 | 1014.7 |
| 20260502161540 | 57 | 360 | 0.0 | 0.9 | 0.00 | 0.00 | 0.00 | 36 | 1014.7 |
| 20260502151523 | 54 | 360 | 0.0 | 0.0 | 0.00 | 0.00 | 0.00 | 36 | 1015.1 |
| 20260502123015 | 43 | 360 | 0.0 | 0.0 | 0.00 | 0.00 | 0.00 | 45 | 1015.2 |
| 20260502121513 | 43 | 360 | 0.0 | 0.0 | 0.00 | 0.00 | 0.00 | 42 | 1015.2 |
| 20260502114509 | 43 | 360 | 0.0 | 0.0 | 0.00 | 0.00 | 0.00 | 41 | 1015.2 |
| 20260502113006 | 43 | 360 | 0.0 | 0.0 | 0.00 | 0.00 | 0.00 | 42 | 1015.3 |
| 20260502111504 | 43 | 360 | 0.0 | 0.0 | 0.00 | 0.00 | 0.00 | 42 | 1015.3 |
| 20260502110003 | 44 | 360 | 0.0 | 0.0 | 0.00 | 0.00 | 0.00 | 40 | 1015.3 |
| 20260502104501 | 43 | 360 | 0.0 | 0.0 | 0.00 | 0.00 | 0.00 | 40 | 1015.2 |
| 20260502103059 | 44 | 360 | 0.0 | 0.0 | 0.00 | 0.00 | 0.00 | 39 | 1015.2 |
| 20260502101624 | 45 | 360 | 0.0 | 0.0 | 0.00 | 0.00 | 0.00 | 38 | 1015.0 |
| 20260502100104 | 44 | 360 | 0.0 | 0.0 | 0.00 | 0.00 | 0.00 | 38 | 1015.0 |
| 20260502090108 | 45 | 360 | 0.0 | 0.0 | 0.00 | 0.00 | 0.00 | 38 | 1014.9 |
| 20260502070056 | 47 | 360 | 0.0 | 0.0 | 0.00 | 0.00 | 0.00 | 34 | 1014.8 |
| 20260502064548 | 46 | 360 | 0.0 | 0.0 | 0.00 | 0.00 | 0.00 | 37 | 1014.8 |
| 20260502063040 | 47 | 360 | 0.0 | 0.0 | 0.00 | 0.00 | 0.00 | 35 | 1014.5 |
| 20260502061538 | 47 | 360 | 0.0 | 0.0 | 0.00 | 0.00 | 0.00 | 34 | 1014.6 |
| 20260502060034 | 49 | 360 | 0.0 | 0.0 | 0.00 | 0.00 | 0.00 | 32 | 1014.7 |
| 20260502054534 | 50 | 360 | 0.0 | 0.0 | 0.00 | 0.00 | 0.00 | 28 | 1014.7 |
| 20260502053032 | 51 | 360 | 0.0 | 0.0 | 0.00 | 0.00 | 0.00 | 28 | 1014.9 |
| 20260502051531 | 50 | 360 | 0.0 | 0.0 | 0.00 | 0.00 | 0.00 | 30 | 1015.0 |
| 20260502050033 | 49 | 360 | 0.0 | 0.0 | 0.00 | 0.00 | 0.00 | 32 | 1015.1 |
| 20260502044530 | 48 | 360 | 0.0 | 0.0 | 0.00 | 0.00 | 0.00 | 33 | 1015.2 |
| 20260502043031 | 51 | 360 | 0.0 | 0.0 | 0.00 | 0.00 | 0.00 | 32 | 1015.2 |
| 20260502041532 | 53 | 360 | 0.0 | 0.0 | 0.00 | 0.00 | 0.00 | 30 | 1015.2 |
| 20260502040030 | 53 | 360 | 0.0 | 0.0 | 0.00 | 0.00 | 0.00 | 28 | 1015.1 |
| 20260502034529 | 53 | 360 | 0.0 | 1.7 | 0.00 | 0.00 | 0.00 | 30 | 1015.0 |
| 20260502033025 | 53 | 360 | 0.0 | 0.0 | 0.00 | 0.00 | 0.00 | 30 | 1015.1 |
| 20260502031523 | 54 | 360 | 0.0 | 1.7 | 0.00 | 0.00 | 0.00 | 29 | 1014.9 |
| 20260502030022 | 53 | 360 | 0.0 | 0.0 | 0.00 | 0.00 | 0.00 | 30 | 1014.8 |
| 20260502024520 | 54 | 360 | 0.0 | 0.0 | 0.00 | 0.00 | 0.00 | 30 | 1014.7 |
| 20260502023019 | 56 | 360 | 0.0 | 0.0 | 0.00 | 0.00 | 0.00 | 30 | 1014.7 |
| 20260502021518 | 59 | 360 | 0.0 | 0.0 | 0.00 | 0.00 | 0.00 | 30 | 1014.9 |
| 20260502020018 | 61 | 360 | 0.0 | 0.0 | 0.00 | 0.00 | 0.00 | 22 | 1014.9 |
| 20260502014519 | 61 | 360 | 0.0 | 0.0 | 0.00 | 0.00 | 0.00 | 24 | 1015.0 |
| 20260502013017 | 62 | 360 | 0.0 | 0.0 | 0.00 | 0.00 | 0.00 | 23 | 1015.0 |
| 20260502011521 | 63 | 360 | 0.0 | 0.0 | 0.00 | 0.00 | 0.00 | 23 | 1015.3 |
| 20260502010015 | 63 | 360 | 0.0 | 0.0 | 0.00 | 0.00 | 0.00 | 21 | 1015.4 |
| 20260502004511 | 64 | 360 | 0.0 | 0.0 | 0.00 | 0.00 | 0.00 | 25 | 1015.4 |
| 20260502003009 | 64 | 360 | 0.0 | 0.0 | 0.00 | 0.00 | 0.00 | 27 | 1015.5 |
| 20260502001508 | 64 | 360 | 0.0 | 0.0 | 0.00 | 0.00 | 0.00 | 25 | 1015.6 |
| 20260502000007 | 64 | 360 | 0.0 | 0.0 | 0.00 | 0.00 | 0.00 | 25 | 1015.5 |
| 20260501234505 | 64 | 360 | 0.0 | 0.0 | 0.00 | 0.00 | 0.00 | 20 | 1015.6 |
| 20260501233011 | 63 | 360 | 0.0 | 0.0 | 0.00 | 0.00 | 0.00 | 22 | 1015.7 |
| 20260501231502 | 63 | 360 | 0.0 | 0.0 | 0.00 | 0.00 | 0.00 | 24 | 1015.8 |
| 20260501230005 | 63 | 360 | 0.0 | 0.0 | 0.00 | 0.00 | 0.00 | 23 | 1016.0 |
| 20260501224558 | 64 | 360 | 0.0 | 0.0 | 0.00 | 0.00 | 0.00 | 24 | 1016.2 |
| 20260501223056 | 63 | 29 | 0.0 | 0.0 | 0.00 | 0.00 | 0.00 | 20 | 1016.4 |
| 20260501221554 | 63 | 240 | 0.0 | 0.0 | 0.00 | 0.00 | 0.00 | 23 | 1016.7 |
| 20260501220135 | 63 | 35 | 0.0 | 1.7 | 0.00 | 0.00 | 0.00 | 24 | 1016.9 |
| 20260501214550 | 62 | 189 | 0.0 | 0.0 | 0.00 | 0.00 | 0.00 | 20 | 1017.1 |
| 20260501213058 | 62 | 355 | 0.0 | 0.0 | 0.00 | 0.00 | 0.00 | 23 | 1017.4 |
| 20260501211546 | 61 | 360 | 0.0 | 0.0 | 0.00 | 0.00 | 0.00 | 20 | 1017.5 |